{"data":{"norad_id":60535,"epoch":"2026-09-22T20:01:08.758560Z","epoch_age_seconds":87426,"freshness":"FRESH","line1":"1 60535U 24149BV  26265.83412915  .00002669  00000+0  22219-3 0  9994","line2":"2 60535  97.6794 341.1687 0003841  94.7411 265.4251 14.99499432157502","mean_motion":14.99499432,"eccentricity":0.0003841,"inclination_deg":97.6794,"raan_deg":341.1687,"arg_perigee_deg":94.7411,"mean_anomaly_deg":265.4251,"bstar":0.00022219,"rev_number":15750,"period_min":96.032047046484,"perigee_km":565.77368849613,"apogee_km":571.11005038364,"semimajor_km":6946.5788694399,"source":"CELESTRAK","updated_at":"2026-09-23T09:00:20.669703Z"}}